�������l�o���
Date,Time,MP-1(��Sv/h),MP-2(��Sv/h),MP-3(��Sv/h),MP-4(��Sv/h),MP-5(��Sv/h),MP-6(��Sv/h),MP-7(��Sv/h),MP-8(��Sv/h),����,����(m/s),���J
2023/05/12,00:00,0.555,0.817,0.493,0.986,0.713,0.322,0.573,0.540,�k��,6.8,��
2023/05/12,00:10,0.556,0.819,0.492,0.989,0.712,0.322,0.575,0.541,�k��,6.7,��
2023/05/12,00:20,0.557,0.818,0.491,0.988,0.711,0.323,0.574,0.540,�k��,6.7,��
2023/05/12,00:30,0.556,0.816,0.491,0.986,0.713,0.323,0.573,0.541,�k��,6.0,��
2023/05/12,00:40,0.555,0.820,0.491,0.987,0.711,0.321,0.574,0.541,�k��,5.3,��
2023/05/12,00:50,0.557,0.819,0.492,0.987,0.714,0.323,0.574,0.542,�k��,6.4,��
2023/05/12,01:00,0.555,0.821,0.493,0.987,0.713,0.323,0.574,0.540,�k��,5.6,��
2023/05/12,01:10,0.555,0.820,0.492,0.986,0.713,0.323,0.574,0.541,�k��,4.7,��
2023/05/12,01:20,0.556,0.819,0.492,0.986,0.713,0.323,0.574,0.542,�k��,5.3,��
2023/05/12,01:30,0.555,0.819,0.492,0.987,0.711,0.322,0.572,0.540,�k��,4.9,��
2023/05/12,01:40,0.558,0.818,0.492,0.983,0.712,0.321,0.574,0.540,�k��,5.0,��
2023/05/12,01:50,0.555,0.819,0.492,0.989,0.711,0.322,0.574,0.541,�k��,4.9,��
2023/05/12,02:00,0.555,0.819,0.492,0.986,0.712,0.324,0.573,0.539,�k��,5.3,��
2023/05/12,02:10,0.557,0.819,0.491,0.988,0.714,0.323,0.574,0.540,�k��,5.6,��
2023/05/12,02:20,0.555,0.818,0.492,0.987,0.713,0.321,0.574,0.540,�k��,5.6,��
2023/05/12,02:30,0.555,0.817,0.492,0.988,0.711,0.323,0.574,0.542,�k��,5.2,��
2023/05/12,02:40,0.556,0.817,0.491,0.987,0.711,0.321,0.574,0.541,�k��,5.7,��
2023/05/12,02:50,0.555,0.818,0.492,0.987,0.714,0.321,0.573,0.541,�k��,5.9,��
2023/05/12,03:00,0.555,0.820,0.492,0.986,0.714,0.321,0.571,0.542,�k��,5.5,��
2023/05/12,03:10,0.557,0.818,0.491,0.986,0.714,0.323,0.573,0.539,�k��,5.3,��
2023/05/12,03:20,0.558,0.817,0.492,0.986,0.712,0.322,0.571,0.540,�k��,6.0,��
2023/05/12,03:30,0.555,0.819,0.492,0.987,0.711,0.322,0.574,0.541,�k��,5.8,��
2023/05/12,03:40,0.555,0.819,0.491,0.987,0.713,0.321,0.573,0.542,�k��,6.0,��
2023/05/12,03:50,0.555,0.819,0.491,0.989,0.714,0.323,0.573,0.541,�k��,5.3,��
2023/05/12,04:00,0.555,0.818,0.492,0.988,0.714,0.322,0.574,0.542,�k��,5.6,��
2023/05/12,04:10,0.556,0.820,0.492,0.988,0.712,0.321,0.573,0.541,�k��,5.6,��
2023/05/12,04:20,0.557,0.817,0.490,0.988,0.712,0.321,0.573,0.541,�k��,5.9,��
2023/05/12,04:30,0.554,0.818,0.491,0.987,0.713,0.321,0.573,0.538,�k�k��,6.8,��
2023/05/12,04:40,0.555,0.819,0.492,0.988,0.713,0.322,0.574,0.540,�k�k��,7.0,��
2023/05/12,04:50,0.553,0.817,0.492,0.989,0.711,0.322,0.573,0.540,�k�k��,7.3,��
2023/05/12,05:00,0.555,0.818,0.491,0.988,0.712,0.322,0.572,0.541,�k�k��,6.5,��
2023/05/12,05:10,0.555,0.820,0.493,0.988,0.712,0.322,0.573,0.541,�k�k��,6.9,��
2023/05/12,05:20,0.554,0.817,0.492,0.987,0.713,0.321,0.573,0.540,�k�k��,6.7,��
2023/05/12,05:30,0.555,0.818,0.492,0.990,0.712,0.321,0.574,0.541,�k��,7.1,��
2023/05/12,05:40,0.555,0.817,0.492,0.989,0.712,0.323,0.574,0.540,�k�k��,7.2,��
2023/05/12,05:50,0.557,0.819,0.491,0.989,0.713,0.321,0.573,0.541,�k�k��,7.1,��
2023/05/12,06:00,0.555,0.817,0.491,0.989,0.711,0.321,0.573,0.541,�k�k��,7.4,��
2023/05/12,06:10,0.557,0.820,0.492,0.989,0.712,0.323,0.574,0.542,�k�k��,7.3,��
2023/05/12,06:20,0.555,0.821,0.492,0.988,0.712,0.322,0.574,0.541,�k�k��,6.3,��
2023/05/12,06:30,0.557,0.821,0.494,0.989,0.710,0.323,0.575,0.540,�k�k��,5.4,��
2023/05/12,06:40,0.556,0.819,0.493,0.990,0.711,0.323,0.575,0.542,�k�k��,5.4,��
2023/05/12,06:50,0.557,0.820,0.493,0.990,0.713,0.322,0.573,0.540,�k�k��,4.6,��
2023/05/12,07:00,0.557,0.817,0.492,0.989,0.712,0.321,0.574,0.543,�k�k��,4.0,��
2023/05/12,07:10,0.557,0.817,0.491,0.988,0.712,0.321,0.573,0.541,�k�k��,3.0,��
2023/05/12,07:20,0.556,0.819,0.491,0.988,0.711,0.320,0.574,0.541,�k�k��,4.9,��
2023/05/12,07:30,0.557,0.818,0.493,0.989,0.712,0.321,0.574,0.543,�k�k��,4.1,��
2023/05/12,07:40,0.557,0.816,0.491,0.988,0.714,0.322,0.574,0.542,�k,3.9,��
2023/05/12,07:50,0.556,0.816,0.494,0.989,0.711,0.320,0.575,0.541,�k�k��,4.6,��
2023/05/12,08:00,0.555,0.816,0.491,0.988,0.712,0.321,0.575,0.541,�k�k��,5.2,��
2023/05/12,08:10,0.558,0.817,0.493,0.987,0.710,0.322,0.576,0.542,�k,4.7,��
2023/05/12,08:20,0.556,0.816,0.492,0.990,0.713,0.320,0.575,0.538,�k�k��,4.7,��
2023/05/12,08:30,0.560,0.816,0.493,0.989,0.712,0.320,0.572,0.539,�k�k��,4.7,��
2023/05/12,08:40,0.557,0.817,0.492,0.989,0.711,0.320,0.574,0.537,�k�k��,4.6,��
2023/05/12,08:50,0.557,0.816,0.492,0.988,0.712,0.319,0.572,0.537,�k�k��,4.7,��
2023/05/12,09:00,0.557,0.817,0.493,0.989,0.711,0.321,0.571,0.538,�k�k��,5.3,��
2023/05/12,09:10,0.556,0.818,0.492,0.988,0.712,0.320,0.571,0.538,�k�k��,5.1,��
2023/05/12,09:20,0.556,0.817,0.491,0.989,0.712,0.321,0.572,0.540,�k�k��,5.2,��
2023/05/12,09:30,0.557,0.819,0.491,0.990,0.711,0.321,0.570,0.539,�k�k��,5.1,��
2023/05/12,09:40,0.556,0.817,0.492,0.990,0.710,0.321,0.571,0.539,�k�k��,4.8,��
2023/05/12,09:50,0.556,0.820,0.492,0.990,0.713,0.321,0.571,0.539,�k�k��,4.0,��
2023/05/12,10:00,0.557,0.817,0.492,0.989,0.713,0.321,0.572,0.540,�k��,3.8,��
2023/05/12,10:10,0.555,0.818,0.492,0.988,0.715,0.321,0.570,0.540,���k��,4.5,��
2023/05/12,10:20,0.556,0.818,0.493,0.990,0.712,0.322,0.572,0.539,�k��,4.1,��
2023/05/12,10:30,0.557,0.819,0.492,0.990,0.713,0.321,0.573,0.540,�k��,4.6,��
2023/05/12,10:40,0.557,0.818,0.490,0.989,0.713,0.321,0.573,0.540,�k��,4.4,��
2023/05/12,10:50,0.558,0.817,0.493,0.988,0.714,0.322,0.572,0.540,�k��,5.0,��
2023/05/12,11:00,0.557,0.820,0.491,-,0.713,0.321,0.571,0.541,���k��,4.4,��
2023/05/12,11:10,0.558,0.821,0.489,-,0.713,0.320,0.573,0.539,���k��,4.1,��
2023/05/12,11:20,0.555,0.820,0.493,-,0.714,0.322,0.572,0.539,�k��,4.6,��
2023/05/12,11:30,0.560,0.821,0.491,-,0.714,0.322,0.571,0.538,�k��,4.1,��
2023/05/12,11:40,0.560,0.821,0.492,-,0.717,0.321,0.573,0.541,�k��,3.7,��
2023/05/12,11:50,0.557,0.821,0.492,-,0.716,0.322,0.571,0.541,���k��,3.9,��
2023/05/12,12:00,0.560,0.821,0.492,-,0.715,0.321,0.572,0.540,���k��,3.4,��
2023/05/12,12:10,0.558,0.822,0.493,-,0.714,0.321,0.573,0.542,���k��,3.5,��
2023/05/12,12:20,0.558,0.821,0.494,-,0.716,0.322,0.572,0.540,�k��,4.1,��
2023/05/12,12:30,0.557,0.821,0.494,-,0.716,0.322,0.573,0.540,���k��,3.7,��
2023/05/12,12:40,0.559,0.822,0.492,-,0.718,0.321,0.573,0.539,���k��,4.3,��
2023/05/12,12:50,0.559,0.821,0.492,-,0.715,0.322,0.571,0.541,���k��,3.8,��
2023/05/12,13:00,0.558,0.820,0.492,-,0.716,0.321,0.572,0.541,���k��,3.3,��
2023/05/12,13:10,0.558,0.821,0.494,-,0.716,0.322,0.572,0.538,���k��,3.0,��
2023/05/12,13:20,0.559,0.822,0.491,-,0.714,0.321,0.573,0.541,���k��,3.5,��
2023/05/12,13:30,0.559,0.823,0.493,-,0.717,0.322,0.572,0.540,���k��,3.8,��
2023/05/12,13:40,0.559,0.821,0.494,-,0.715,0.322,0.573,0.540,���k��,3.0,��
2023/05/12,13:50,0.559,0.821,0.493,-,0.716,0.321,0.573,0.540,���k��,3.7,��
2023/05/12,14:00,0.558,0.821,0.492,-,0.716,0.321,0.573,0.541,�k��,3.1,��
2023/05/12,14:10,0.558,0.822,0.491,0.991,0.717,0.321,0.573,0.540,�k��,3.2,��
2023/05/12,14:20,0.558,0.822,0.494,0.990,0.717,0.322,0.573,0.541,�k��,3.6,��
2023/05/12,14:30,0.559,0.821,0.492,0.991,0.718,0.322,0.573,0.541,���k��,3.0,��
2023/05/12,14:40,0.558,0.823,0.494,0.992,0.718,0.321,0.573,0.541,�k��,3.2,��
2023/05/12,14:50,0.558,0.821,0.493,0.991,0.716,0.322,0.572,0.540,��,3.1,��
2023/05/12,15:00,0.559,0.822,0.492,0.988,0.719,0.322,0.574,0.540,��,2.9,��
2023/05/12,15:10,0.558,0.821,0.493,0.991,0.717,0.322,0.575,0.539,���k��,2.6,��
2023/05/12,15:20,0.558,0.821,0.493,0.989,0.716,0.322,0.574,0.540,���쓌,2.3,��
2023/05/12,15:30,0.559,0.822,0.492,0.989,0.719,0.323,0.573,0.540,��,2.2,��
2023/05/12,15:40,0.560,0.822,0.495,0.990,0.719,0.321,0.575,0.540,���쓌,1.7,��
2023/05/12,15:50,0.558,0.823,0.493,0.992,0.717,0.321,0.573,0.540,��,2.5,��
2023/05/12,16:00,0.560,0.820,0.494,0.990,0.718,0.322,0.573,0.540,���쓌,2.3,��
2023/05/12,16:10,0.560,0.823,0.493,0.992,0.718,0.323,0.573,0.541,�쓌,2.3,��
2023/05/12,16:20,0.559,0.821,0.494,0.991,0.717,0.324,0.574,0.541,��,2.0,��
2023/05/12,16:30,0.560,0.823,0.493,0.990,0.717,0.323,0.573,0.540,���쓌,2.2,��
2023/05/12,16:40,0.559,0.822,0.494,0.991,0.717,0.323,0.574,0.538,�쓌,3.2,��
2023/05/12,16:50,0.559,0.824,0.493,0.994,0.719,0.323,0.576,0.541,���쓌,2.5,��
2023/05/12,17:00,0.558,0.825,0.494,0.991,0.719,0.324,0.574,0.541,�쓌,2.8,��
2023/05/12,17:10,0.559,0.825,0.493,0.989,0.716,0.324,0.573,0.541,���쓌,2.6,��
2023/05/12,17:20,0.557,0.826,0.493,0.991,0.718,0.324,0.574,0.542,���쓌,3.0,��
2023/05/12,17:30,0.560,0.825,0.494,0.991,0.717,0.323,0.574,0.542,��쓌,1.9,��
2023/05/12,17:40,0.559,0.824,0.493,0.994,0.720,0.324,0.574,0.543,���쓌,2.3,��
2023/05/12,17:50,0.557,0.824,0.492,0.993,0.718,0.323,0.574,0.542,�쓌,1.7,��
2023/05/12,18:00,0.558,0.825,0.493,0.992,0.718,0.324,0.574,0.542,���쓌,2.0,��
2023/05/12,18:10,0.561,0.829,0.492,0.993,0.718,0.324,0.573,0.544,��쓌,2.3,��
2023/05/12,18:20,0.562,0.827,0.492,0.993,0.718,0.323,0.574,0.542,�쓌,2.0,��
2023/05/12,18:30,0.559,0.825,0.494,0.994,0.719,0.324,0.573,0.543,��쓌,2.3,��
2023/05/12,18:40,0.561,0.825,0.494,0.995,0.720,0.324,0.573,0.542,��,1.7,��
2023/05/12,18:50,0.561,0.827,0.494,0.994,0.721,0.324,0.573,0.543,��쓌,2.2,��
2023/05/12,19:00,0.560,0.824,0.496,0.993,0.719,0.324,0.575,0.542,��쓌,2.6,��
2023/05/12,19:10,0.559,0.825,0.493,0.994,0.719,0.324,0.575,0.542,�쓌,2.3,��
2023/05/12,19:20,0.560,0.825,0.493,0.994,0.720,0.324,0.576,0.541,��쓌,2.0,��
2023/05/12,19:30,0.558,0.825,0.494,0.997,0.719,0.323,0.576,0.541,��쓌,2.0,��
2023/05/12,19:40,0.561,0.825,0.495,0.994,0.719,0.323,0.576,0.542,��쓌,2.3,��
2023/05/12,19:50,0.559,0.825,0.495,0.996,0.719,0.323,0.575,0.542,��,2.5,��
2023/05/12,20:00,0.559,0.826,0.494,0.995,0.720,0.323,0.576,0.542,��쓌,2.3,��
2023/05/12,20:10,0.560,0.824,0.494,0.996,0.719,0.323,0.575,0.542,��,2.6,��
2023/05/12,20:20,0.558,0.825,0.494,0.994,0.721,0.323,0.576,0.542,��쐼,3.0,��
2023/05/12,20:30,0.559,0.826,0.494,0.995,0.720,0.324,0.577,0.540,��,2.8,��
2023/05/12,20:40,0.562,0.826,0.495,0.996,0.719,0.321,0.577,0.541,��,2.6,��
2023/05/12,20:50,0.560,0.825,0.494,0.994,0.718,0.324,0.576,0.542,��,2.5,��
2023/05/12,21:00,0.560,0.824,0.494,0.997,0.720,0.323,0.574,0.542,��,2.5,��
2023/05/12,21:10,0.560,0.826,0.494,0.995,0.719,0.323,0.576,0.541,��쐼,2.5,��
2023/05/12,21:20,0.559,0.824,0.496,0.996,0.718,0.323,0.577,0.542,��,2.6,��
2023/05/12,21:30,0.559,0.827,0.495,0.995,0.719,0.323,0.575,0.540,��,2.3,��
2023/05/12,21:40,0.560,0.825,0.495,0.995,0.719,0.324,0.578,0.542,��,2.8,��
2023/05/12,21:50,0.560,0.824,0.496,0.994,0.721,0.323,0.577,0.542,��,2.3,��
2023/05/12,22:00,0.560,0.824,0.493,0.995,0.718,0.323,0.576,0.542,��,1.5,��
2023/05/12,22:10,0.561,0.825,0.494,0.996,0.717,0.322,0.576,0.541,��,2.0,��
2023/05/12,22:20,0.560,0.827,0.494,0.996,0.720,0.322,0.575,0.542,��쓌,1.7,��
2023/05/12,22:30,0.560,0.825,0.493,0.995,0.719,0.325,0.577,0.542,��쐼,0.9,��
2023/05/12,22:40,0.560,0.824,0.494,0.996,0.719,0.324,0.575,0.542,��,1.5,��
2023/05/12,22:50,0.560,0.825,0.493,0.993,0.721,0.325,0.577,0.542,-,CALM,��
2023/05/12,23:00,0.561,0.824,0.494,0.996,0.721,0.323,0.575,0.543,�쓌,0.8,��
2023/05/12,23:10,0.560,0.824,0.493,0.995,0.718,0.323,0.576,0.541,��,0.8,��
2023/05/12,23:20,0.560,0.824,0.494,0.996,0.720,0.324,0.577,0.540,��,1.1,��
2023/05/12,23:30,0.560,0.822,0.495,0.993,0.722,0.324,0.575,0.540,��쓌,0.9,��
2023/05/12,23:40,0.561,0.825,0.495,0.996,0.720,0.324,0.576,0.541,-,CALM,��
2023/05/12,23:50,0.560,0.826,0.495,0.994,0.719,0.324,0.576,0.542,-,CALM,��
